Hourly Data Report for October 05, 2016

All times are specified in Local Standard Time (LST). Add 1 hour to adjust for Daylight Saving Time where and when it is observed.

CHARLOTTETOWN A
PRINCE EDWARD ISLAND

46°17'21.000" N
63°07'09.000" W
48.50 m
8300301
71706
YYG

Download Data

Hourly Data (October 2016)
Hourly Data Report for October 5, 2016
Temp Definition
°C
Dew Point Temp Definition
°C
Rel Hum Definition
%
Wind Dir Definition
10's deg

Wind Spd Definition
km/h
Visibility Definition
km
Stn Press Definition
kPa
Hmdx Definition


Wind Chill Definition


Weather Definition


TIME
00:00 Legend Double Dagger 7.0 4.5 84 24 9 24.1 102.20     LegendNANA
01:00 Legend Double Dagger 6.8 4.5 85 24 13 24.1 102.23     LegendNANA
02:00 Legend Double Dagger 7.3 5.3 87 24 14 24.1 102.23     Clear
03:00 Legend Double Dagger 6.9 5.1 88 24 10 24.1 102.18     LegendNANA
04:00 Legend Double Dagger 7.3 5.9 91 25 10 24.1 102.12     LegendNANA
05:00 Legend Double Dagger 6.8 5.1 89 27 10 24.1 102.07     Clear
06:00 Legend Double Dagger 7.0 5.2 88 24 14 24.1 102.09     LegendNANA
07:00 Legend Double Dagger 7.6 5.6 87 24 14 24.1 102.10     LegendNANA
08:00 Legend Double Dagger 10.0 6.9 81 24 18 24.1 102.13     Clear
09:00 Legend Double Dagger 11.6 7.0 73 25 17 24.1 102.17     LegendNANA
10:00 Legend Double Dagger 13.9 8.6 70 23 16 24.1 102.12     LegendNANA
11:00 Legend Double Dagger 15.9 10.1 68 22 14 24.1 102.05     Clear
12:00 Legend Double Dagger 16.6 10.1 65 25 17 24.1 102.01     LegendNANA
13:00 Legend Double Dagger 16.9 10.4 65 24 19 24.1 101.93     LegendNANA
14:00 Legend Double Dagger 17.6 10.1 61 23 17 24.1 101.88     Clear
15:00 Legend Double Dagger 17.9 10.1 60 23 18 24.1 101.84     LegendNANA
16:00 Legend Double Dagger 17.8 10.0 60 24 16 24.1 101.76     LegendNANA
17:00 Legend Double Dagger 16.8 9.8 63 25 13 24.1 101.77     Clear
18:00 Legend Double Dagger 14.7 9.8 72 23 8 24.1 101.78     LegendNANA
19:00 Legend Double Dagger 13.1 9.4 78 24 9 24.1 101.77     LegendNANA
20:00 Legend Double Dagger 12.5 9.9 84 24 13 24.1 101.78     Clear
21:00 Legend Double Dagger 11.6 9.5 87 24 15 24.1 101.80     LegendNANA
22:00 Legend Double Dagger 10.9 9.2 89 23 12 24.1 101.79     LegendNANA
23:00 Legend Double Dagger 11.4 9.8 90 24 15 24.1 101.76     Clear

Notes on Data Quality.

Legend

  • E = Estimated
  • M = Missing
  • NA = Not Available
  • ‡ = Partner data that is not subject to review by the National Climate Archives
Date modified: